Location: Bemmer
(51.5498°N, 5.6249°E)
Time: 12:15:37
(UTC+00:00)

Meteor 1-18 Rocket - Pass Details

Date: 03 March 2021
Orbit: 837 x 909 km, 81.2° (Epoch: 10 April)

Event Time Altitude Azimuth Distance (km) Brightness Sun altitude
Rises 17:46:05 0° 349° (N) 3,550 7.5 -4.6°
Reaches altitude 10° 17:48:38 10° 354° (N) 2,607 6.8 -5.0°
Maximum altitude 17:54:29 55° 72° (ENE) 1,087 4.5 -5.9°
Drops below altitude 10° 18:00:16 10° 150° (SSE) 2,580 6.5 -6.8°
Sets 18:02:46 0° 154° (SSE) 3,510 7.2 -7.2°
